Granite Falls, MN

1:43 AM CST on December 16, 2019 (GMT -0600)
Granite Falls

Weather History for KGDB - October, 2019

Change the Weather History Date:

Sunday, October 6, 2019

  Actual Average (KMVE) Record (KMVE)
Temperature  
Mean Temperature 54 °F -  
Max Temperature 64 °F 65 °F 92 °F (1993)
Min Temperature 45 °F 39 °F 20 °F (1976)
Degree Days  
Heating Degree Days 10    
Growing Degree Days 4 (Base 50)    
Moisture  
Dew Point 42 °F    
Average Humidity 64    
Maximum Humidity 84    
Minimum Humidity 39    
Precipitation  
Precipitation 0.00 in - - ()
Sea Level Pressure  
Sea Level Pressure 30.00 in    
Wind  
Wind Speed 13 mph (WSW)    
Max Wind Speed 28 mph    
Max Gust Speed 36 mph    
Visibility 10 miles    
Events      
Averages and records for this station are not official NWS values.
T = Trace of Precipitation, MM = Missing Value Source: NWS Daily Summary

Daily Weather History Graph

Daily Weather History Graph

Search for Another Location

Airport or City:

Astronomy

Oct. 06, 2019 Rise Set
Actual Time 7:26 AM CDT 6:53 PM CDT
Civil Twilight 6:56 AM CDT 7:23 PM CDT
Nautical Twilight 6:23 AM CDT 7:56 PM CDT
Astronomical Twilight 5:48 AM CDT 8:30 PM CDT
Moon 3:52 PM CDT (10/6) 12:06 AM CDT (10/6)
Length of Visible Light 12h 26m
Length of Day
11h 27m
First Quarter, 60% of the Moon is Illuminated
Oct 6
First Quarter
Oct 13
Full
Oct 21
Last Quarter
Oct 27
New
Nov 4
First Quarter

Hourly Weather History & Observations

Time (CDT) Temp. Windchill Dew Point Humidity Pressure Visibility Wind Dir Wind Speed Gust Speed Precip Events Conditions
12:15 AM 47.5 °F - 42.8 °F 84% 29.89 in 10.0 mi WSW 9.2 mph - N/A   Clear
12:20 AM 47.7 °F - 42.8 °F 83% 29.89 in 10.0 mi WSW 10.4 mph - N/A   Clear
12:37 AM 48.2 °F - 42.8 °F 82% 29.89 in 10.0 mi SW 8.1 mph - N/A   Clear
12:55 AM 48.4 °F - 42.8 °F 81% 29.89 in 10.0 mi SW 9.2 mph - N/A   Clear
1:15 AM 49.1 °F - 42.8 °F 79% 29.89 in 10.0 mi SW 9.2 mph - N/A   Clear
1:16 AM 49.1 °F - 42.8 °F 79% 29.89 in 10.0 mi SW 9.2 mph - N/A   Clear
1:35 AM 49.5 °F - 42.8 °F 78% 29.89 in 10.0 mi SSW 6.9 mph - N/A   Clear
1:36 AM 49.5 °F - 42.8 °F 78% 29.89 in 10.0 mi SSW 8.1 mph - N/A   Clear
2:17 AM 48.2 °F - 42.3 °F 80% 29.90 in 10.0 mi SSW 8.1 mph - N/A   Clear
2:36 AM 48.2 °F - 42.1 °F 79% 29.90 in 10.0 mi SSW 8.1 mph - N/A   Clear
2:55 AM 47.7 °F - 41.9 °F 80% 29.91 in 10.0 mi SSW 9.2 mph - N/A   Clear
2:56 AM 47.7 °F - 41.9 °F 80% 29.91 in 10.0 mi SSW 9.2 mph - N/A   Clear
3:15 AM 46.6 °F - 41.4 °F 82% 29.92 in 10.0 mi SSW 9.2 mph - N/A   Clear
3:37 AM 47.1 °F - 41.5 °F 81% 29.92 in 10.0 mi SW 10.4 mph - N/A   Clear
3:56 AM 48.0 °F - 41.7 °F 79% 29.93 in 10.0 mi SW 9.2 mph - N/A   Clear
4:15 AM 48.0 °F - 41.9 °F 79% 29.93 in 10.0 mi SW 11.5 mph - N/A   Clear
4:16 AM 48.2 °F - 41.9 °F 79% 29.93 in 10.0 mi SW 12.7 mph - N/A   Clear
4:35 AM 48.2 °F - 41.5 °F 78% 29.93 in 10.0 mi SW 12.7 mph - N/A   Clear
4:36 AM 48.2 °F - 41.5 °F 78% 29.94 in 10.0 mi SW 12.7 mph - N/A   Clear
4:59 AM 47.5 °F - 41.0 °F 78% 29.94 in 10.0 mi SW 11.5 mph - N/A   Clear
5:16 AM 46.4 °F 41.9 °F 40.6 °F 80% 29.94 in 10.0 mi SW 9.2 mph - N/A   Clear
5:36 AM 45.9 °F 40.4 °F 40.5 °F 81% 29.94 in 10.0 mi SW 11.5 mph - N/A   Clear
5:55 AM 46.2 °F 41.2 °F 40.1 °F 79% 29.94 in 10.0 mi SW 10.4 mph - N/A   Clear
6:15 AM 45.7 °F 40.6 °F 40.1 °F 81% 29.95 in 10.0 mi SW 10.4 mph - N/A   Clear
6:19 AM 45.7 °F 40.2 °F 40.1 °F 81% 29.95 in 10.0 mi WSW 11.5 mph - N/A   Clear
6:38 AM 45.5 °F 40.3 °F 40.1 °F 81% 29.97 in 10.0 mi SW 10.4 mph - N/A   Clear
6:55 AM 45.7 °F 39.8 °F 39.9 °F 80% 29.97 in 10.0 mi WSW 12.7 mph - N/A   Clear
7:15 AM 45.7 °F 40.2 °F 39.9 °F 80% 29.97 in 10.0 mi SW 11.5 mph - N/A   Clear
7:16 AM 45.7 °F 40.2 °F 40.1 °F 81% 29.97 in 10.0 mi SW 11.5 mph - N/A   Clear
7:35 AM 45.7 °F 40.2 °F 39.9 °F 80% 29.98 in 10.0 mi WSW 11.5 mph - N/A   Clear
7:58 AM 45.5 °F 40.3 °F 40.1 °F 81% 29.98 in 10.0 mi SW 10.4 mph - N/A   Clear
8:17 AM 47.1 °F - 40.5 °F 78% 29.99 in 10.0 mi SW 11.5 mph - N/A   Clear
8:35 AM 48.6 °F - 41.0 °F 75% 29.99 in 10.0 mi SW 13.8 mph 18.4 mph N/A   Clear
8:36 AM 48.6 °F - 41.0 °F 75% 29.98 in 10.0 mi SW 13.8 mph 18.4 mph N/A   Clear
8:55 AM 50.4 °F - 42.1 °F 73% 30.00 in 10.0 mi WSW 16.1 mph - N/A   Clear
8:56 AM 50.4 °F - 42.1 °F 73% 30.00 in 10.0 mi WSW 17.3 mph - N/A   Clear
9:15 AM 51.3 °F - 41.9 °F 70% 30.00 in 10.0 mi WSW 18.4 mph 21.9 mph N/A   Clear
9:20 AM 51.8 °F - 41.9 °F 69% 30.00 in 10.0 mi WSW 17.3 mph 21.9 mph N/A   Clear
9:38 AM 52.9 °F - 42.3 °F 67% 30.00 in 10.0 mi WSW 17.3 mph 25.3 mph N/A   Clear
9:55 AM 54.1 °F - 42.3 °F 64% 30.01 in 10.0 mi West 18.4 mph 26.5 mph N/A   Clear
10:15 AM 55.8 °F - 42.6 °F 61% 30.01 in 10.0 mi WSW 20.7 mph 27.6 mph N/A   Clear
10:35 AM 56.5 °F - 42.6 °F 60% 30.02 in 10.0 mi WSW 15.0 mph 26.5 mph N/A   Clear
10:36 AM 56.5 °F - 43.0 °F 61% 30.02 in 10.0 mi WSW 17.3 mph 26.5 mph N/A   Clear
10:59 AM 58.3 °F - 43.7 °F 58% 30.03 in 10.0 mi West 18.4 mph - N/A   Clear
11:16 AM 59.2 °F - 43.5 °F 56% 30.03 in 10.0 mi WSW 21.9 mph 25.3 mph N/A   Clear
11:36 AM 59.5 °F - 43.0 °F 54% 30.03 in 10.0 mi West 19.6 mph 27.6 mph N/A   Clear
11:55 AM 60.6 °F - 43.7 °F 54% 30.04 in 10.0 mi West 18.4 mph 27.6 mph N/A   Clear
11:56 AM 60.6 °F - 43.7 °F 54% 30.04 in 10.0 mi WSW 20.7 mph 27.6 mph N/A   Clear
12:15 PM 61.3 °F - 43.5 °F 52% 30.04 in 10.0 mi West 24.2 mph 31.1 mph N/A   Clear
12:19 PM 61.7 °F - 43.2 °F 51% 30.04 in 10.0 mi West 19.6 mph 31.1 mph N/A   Clear
12:37 PM 62.1 °F - 43.3 °F 50% 30.04 in 10.0 mi WSW 19.6 mph 29.9 mph N/A   Clear
12:56 PM 62.8 °F - 43.2 °F 49% 30.04 in 10.0 mi West 19.6 mph 29.9 mph N/A   Scattered Clouds
1:15 PM 63.0 °F - 42.6 °F 47% 30.04 in 10.0 mi West 26.5 mph 35.7 mph N/A   Scattered Clouds
1:16 PM 63.0 °F - 42.6 °F 47% 30.04 in 10.0 mi West 20.7 mph 32.2 mph N/A   Scattered Clouds
1:35 PM 64.8 °F - 43.3 °F 46% 30.04 in 10.0 mi West 27.6 mph 32.2 mph N/A   Scattered Clouds
1:36 PM 64.8 °F - 43.2 °F 45% 30.04 in 10.0 mi West 26.5 mph 32.2 mph N/A   Scattered Clouds
1:58 PM 63.7 °F - 41.9 °F 45% 30.03 in 10.0 mi West 24.2 mph 33.4 mph N/A   Scattered Clouds
2:16 PM 63.0 °F - 42.3 °F 47% 30.03 in 10.0 mi West 16.1 mph 28.8 mph N/A   Clear
2:35 PM 63.5 °F - 42.3 °F 46% 30.03 in 10.0 mi West 25.3 mph 32.2 mph N/A   Scattered Clouds
2:55 PM 64.8 °F - 42.6 °F 45% 30.03 in 10.0 mi West 21.9 mph 31.1 mph N/A   Mostly Cloudy
2:56 PM 64.4 °F - 42.4 °F 45% 30.03 in 10.0 mi West 21.9 mph 28.8 mph N/A   Mostly Cloudy
3:15 PM 63.1 °F - 41.9 °F 46% 30.03 in 10.0 mi West 20.7 mph 32.2 mph N/A   Scattered Clouds
3:19 PM 63.5 °F - 42.4 °F 46% 30.03 in 10.0 mi West 23.0 mph 28.8 mph N/A   Scattered Clouds
3:38 PM 64.9 °F - 41.5 °F 42% 30.03 in 10.0 mi West 25.3 mph 33.4 mph N/A   Clear
3:56 PM 64.8 °F - 39.9 °F 40% 30.03 in 10.0 mi West 19.6 mph 31.1 mph N/A   Clear
4:15 PM 64.9 °F - 39.4 °F 39% 30.03 in 10.0 mi West 21.9 mph 28.8 mph N/A   Clear
4:16 PM 64.9 °F - 39.4 °F 39% 30.03 in 10.0 mi West 21.9 mph 28.8 mph N/A   Clear
4:35 PM 64.8 °F - 41.4 °F 42% 30.03 in 10.0 mi West 20.7 mph 29.9 mph N/A   Clear
4:36 PM 64.8 °F - 41.0 °F 42% 30.03 in 10.0 mi West 19.6 mph 29.9 mph N/A   Clear
4:58 PM 63.3 °F - 40.5 °F 43% 30.03 in 10.0 mi West 18.4 mph - N/A   Scattered Clouds
5:17 PM 64.8 °F - 42.4 °F 44% 30.03 in 10.0 mi West 19.6 mph 25.3 mph N/A   Scattered Clouds
5:36 PM 63.0 °F - 41.9 °F 46% 30.03 in 10.0 mi West 18.4 mph 27.6 mph N/A   Scattered Clouds
5:55 PM 62.4 °F - 41.9 °F 47% 30.04 in 10.0 mi WSW 18.4 mph 21.9 mph N/A   Clear
5:56 PM 62.2 °F - 41.7 °F 47% 30.04 in 10.0 mi WSW 17.3 mph 21.9 mph N/A   Clear
6:15 PM 61.0 °F - 42.3 °F 50% 30.04 in 10.0 mi WSW 12.7 mph - N/A   Clear
6:37 PM 58.3 °F - 43.0 °F 57% 30.05 in 10.0 mi WSW 10.4 mph - N/A   Clear
6:55 PM 54.7 °F - 43.9 °F 67% 30.05 in 10.0 mi WSW 9.2 mph - N/A   Scattered Clouds
7:15 PM 54.1 °F - 44.4 °F 70% 30.06 in 10.0 mi SW 9.2 mph - N/A   Mostly Cloudy
7:16 PM 54.0 °F - 44.4 °F 70% 30.06 in 10.0 mi SW 9.2 mph - N/A   Mostly Cloudy
7:35 PM 52.2 °F - 43.2 °F 71% 30.06 in 10.0 mi SW 8.1 mph - N/A   Mostly Cloudy
7:36 PM 52.0 °F - 43.2 °F 72% 30.06 in 10.0 mi SW 8.1 mph - N/A   Mostly Cloudy
7:59 PM 54.1 °F - 42.4 °F 65% 30.06 in 10.0 mi SSW 5.8 mph - N/A   Clear
8:16 PM 52.7 °F - 41.4 °F 65% 30.06 in 10.0 mi SSW 6.9 mph - N/A   Clear
8:36 PM 54.1 °F - 41.5 °F 62% 30.06 in 10.0 mi SSW 10.4 mph - N/A   Mostly Cloudy
8:55 PM 54.1 °F - 42.3 °F 64% 30.06 in 10.0 mi SW 9.2 mph - N/A   Overcast
9:15 PM 54.1 °F - 42.1 °F 64% 30.06 in 10.0 mi SW 10.4 mph - N/A   Overcast
9:19 PM 54.5 °F - 42.3 °F 63% 30.06 in 10.0 mi SW 11.5 mph - N/A   Overcast
9:37 PM 56.5 °F - 41.9 °F 58% 30.06 in 10.0 mi SW 11.5 mph - N/A   Overcast
9:56 PM 56.3 °F - 42.1 °F 59% 30.06 in 10.0 mi WSW 12.7 mph - N/A   Overcast
10:15 PM 57.4 °F - 41.9 °F 56% 30.07 in 10.0 mi WSW 12.7 mph - N/A   Overcast
10:16 PM 57.4 °F - 41.9 °F 56% 30.07 in 10.0 mi WSW 12.7 mph - N/A   Overcast
10:35 PM 56.3 °F - 42.1 °F 59% 30.08 in 10.0 mi WSW 12.7 mph - N/A   Overcast
10:58 PM 54.7 °F - 41.7 °F 62% 30.09 in 10.0 mi WSW 10.4 mph - N/A   Mostly Cloudy
11:16 PM 52.7 °F - 41.2 °F 65% 30.09 in 10.0 mi WSW 9.2 mph - N/A   Scattered Clouds
11:35 PM 54.5 °F - 40.3 °F 59% 30.10 in 10.0 mi West 12.7 mph 18.4 mph N/A   Scattered Clouds
11:55 PM 53.1 °F - 41.0 °F 64% 30.11 in 10.0 mi WSW 11.5 mph - N/A   Clear
11:56 PM 52.9 °F - 40.8 °F 64% 30.11 in 10.0 mi WSW 11.5 mph - N/A   Clear